DW6513 Weather Reports


time (UTC)temp
F
wind
direction
speed
knots
gust
knots
rain 1hr
in
rain 24hr
in
rain mn
in
humidity
%
barometer
mb
20260508233802 72 257 2.6 5.2 0.00 0.00 0.00 48 1008.0
20260508233303 72 351 2.6 5.2 0.00 0.00 0.00 47 1008.0
20260508232803 73 303 1.7 6.1 0.00 0.00 0.00 47 1007.8
20260508232306 73 319 1.7 6.1 0.00 0.00 0.00 46 1007.8
20260508231802 73 145 1.7 4.3 0.00 0.00 0.00 45 1007.8
20260508231303 73 359 1.7 7.0 0.00 0.00 0.00 44 1007.8
20260508230803 73 347 1.7 7.0 0.00 0.00 0.00 43 1007.5
20260508230302 74 247 2.6 7.0 0.00 0.00 0.00 42 1007.5
20260508225802 75 347 2.6 4.3 0.00 0.00 0.00 41 1007.5
20260508225306 76 18 1.7 5.2 0.00 0.00 0.00 40 1007.5
20260508224802 76 55 1.7 7.8 0.00 0.00 0.00 39 1007.7
20260508223802 76 280 1.7 4.3 0.00 0.00 0.00 39 1007.7
20260508222802 77 190 2.6 4.3 0.00 0.00 0.00 38 1007.3
20260508221303 81 145 4.3 11.3 0.00 0.00 0.00 36 1007.3
20260508220803 80 123 5.2 7.8 0.00 0.00 0.00 36 1007.5
20260508215803 77 33 4.3 7.0 0.00 0.00 0.00 37 1007.5
20260508215306 79 69 4.3 8.7 0.00 0.00 0.00 36 1007.5
20260508214803 81 123 4.3 19.1 0.00 0.00 0.00 35 1007.7
20260508214303 81 86 4.3 13.0 0.00 0.00 0.00 36 1007.7
20260508213802 81 347 4.3 2.6 0.00 0.00 0.00 35 1007.7
20260508213303 80 275 4.3 11.3 0.00 0.00 0.00 36 1007.7
20260508212803 79 347 4.3 7.0 0.00 0.00 0.00 37 1008.4
20260508212306 78 190 4.3 8.7 0.00 0.00 0.00 39 1008.4
20260508211803 78 325 2.6 7.0 0.00 0.00 0.00 39 1008.4
20260508211303 76 43 4.3 11.3 0.00 0.00 0.00 39 1008.4
20260508210803 76 347 4.3 5.2 0.00 0.00 0.00 37 1008.0
20260508210302 77 261 6.1 12.2 0.00 0.00 0.00 37 1008.0
20260508205803 78 167 6.1 12.2 0.00 0.00 0.00 36 1008.0
20260508205306 80 303 5.2 10.4 0.00 0.00 0.00 37 1008.0
20260508204803 80 325 4.3 13.0 0.00 0.00 0.00 39 1008.4
20260508204302 80 145 4.3 13.0 0.00 0.00 0.00 38 1008.4
20260508203303 80 138 5.2 18.2 0.00 0.00 0.00 39 1008.4
20260508202803 80 190 4.3 4.3 0.00 0.00 0.00 41 1008.8
20260508202306 78 135 5.2 11.3 0.00 0.00 0.00 40 1008.8
20260508201802 78 145 4.3 7.0 0.00 0.00 0.00 41 1008.8
20260508201303 79 347 2.6 7.0 0.00 0.00 0.00 40 1008.8
20260508200802 78 213 5.2 6.1 0.00 0.00 0.00 41 1008.9
20260508195802 78 145 4.3 13.0 0.00 0.00 0.00 40 1008.9
20260508195305 77 221 5.2 10.4 0.00 0.00 0.00 42 1008.9
20260508194803 79 347 5.2 12.2 0.00 0.00 0.00 40 1009.0
20260508194303 80 100 4.3 7.0 0.00 0.00 0.00 41 1009.0
20260508193803 79 167 5.2 7.0 0.00 0.00 0.00 43 1009.0
20260508193303 77 199 5.2 11.3 0.00 0.00 0.00 42 1009.0
20260508192803 77 145 4.3 10.4 0.00 0.00 0.00 43 1009.3
20260508192306 75 133 4.3 10.4 0.00 0.00 0.00 45 1009.3
20260508191803 74 190 4.3 10.4 0.00 0.00 0.00 47 1009.3
20260508191303 73 176 4.3 10.4 0.00 0.00 0.00 48 1009.3
20260508190802 73 235 4.3 10.4 0.00 0.00 0.00 48 1009.4
20260508185802 72 213 4.3 10.4 0.00 0.00 0.00 50 1009.4
20260508185306 72 144 4.3 8.7 0.00 0.00 0.00 51 1009.4
20260508184803 72 145 4.3 7.8 0.00 0.00 0.00 50 1009.7
20260508184303 72 145 4.3 7.8 0.00 0.00 0.00 51 1009.7
20260508183803 73 167 5.2 4.3 0.00 0.00 0.00 51 1009.7
20260508183302 72 157 4.3 8.7 0.00 0.00 0.00 52 1009.7
20260508182803 72 190 2.6 7.8 0.00 0.00 0.00 51 1010.2
20260508181803 71 167 2.6 4.3 0.00 0.00 0.00 52 1010.2
20260508181303 71 142 2.6 8.7 0.00 0.00 0.00 52 1010.2
20260508180303 71 151 4.3 11.3 0.00 0.00 0.00 53 1010.1
20260508175803 71 303 4.3 11.3 0.00 0.00 0.00 52 1010.1
20260508175305 71 173 2.6 7.8 0.00 0.00 0.00 53 1010.1
20260508174803 71 167 1.7 5.2 0.00 0.00 0.00 54 1010.9
20260508174302 70 96 3.5 7.0 0.00 0.00 0.00 54 1010.9
20260508173803 69 145 3.5 5.2 0.00 0.00 0.00 54 1010.9
20260508173303 69 167 1.7 5.2 0.00 0.00 0.00 55 1010.9
20260508172803 69 145 1.7 5.2 0.00 0.00 0.00 55 1011.2
20260508172306 68 145 2.6 5.2 0.00 0.00 0.00 56 1011.2
20260508171803 67 123 3.5 7.0 0.00 0.00 0.00 56 1011.2
20260508171303 67 145 1.7 7.0 0.00 0.00 0.00 56 1011.2
20260508170803 67 167 0.9 6.1 0.00 0.00 0.00 58 1011.4
20260508170303 67 155 1.7 5.2 0.00 0.00 0.00 58 1011.4
20260508165802 67 190 0.9 5.2 0.00 0.00 0.00 58 1011.4
20260508164802 67 167 0.0 1.7 0.00 0.00 0.00 59 1011.9
20260508163803 65 303 0.0 2.6 0.00 0.00 0.00 59 1011.9
20260508163303 64 164 0.9 2.6 0.00 0.00 0.00 59 1011.9
20260508162803 64 145 0.9 2.6 0.00 0.00 0.00 59 1011.9
20260508162306 64 145 0.9 5.2 0.00 0.00 0.00 59 1011.9
20260508161802 64 145 0.9 4.3 0.00 0.00 0.00 59 1011.9
20260508161303 64 167 1.7 4.3 0.00 0.00 0.00 59 1011.9
20260508160803 64 145 1.7 4.3 0.00 0.00 0.00 59 1012.4
20260508160302 64 204 1.7 4.3 0.00 0.00 0.00 58 1012.4
20260508155803 64 145 1.7 2.6 0.00 0.00 0.00 58 1012.4
20260508154803 64 100 2.6 7.0 0.00 0.00 0.00 58 1012.0
20260508154303 64 176 2.6 4.3 0.00 0.00 0.00 57 1012.0
20260508153802 64 100 2.6 6.1 0.00 0.00 0.00 58 1012.0
20260508153302 64 145 2.6 5.2 0.00 0.00 0.00 57 1012.0
20260508152802 64 145 1.7 4.3 0.00 0.00 0.00 57 1012.3
20260508152305 64 192 1.7 2.6 0.00 0.00 0.00 57 1012.3
20260508151803 64 213 1.7 4.3 0.00 0.00 0.00 57 1012.3
20260508151303 64 244 1.7 4.3 0.00 0.00 0.00 57 1012.3
20260508150802 64 145 1.7 4.3 0.00 0.00 0.00 57 1012.7
20260508145803 64 145 4.3 7.0 0.00 0.00 0.00 56 1012.7
20260508144803 65 167 5.2 12.2 0.00 0.00 0.00 56 1012.9
20260508144302 65 145 6.1 12.2 0.00 0.00 0.00 56 1012.9
20260508143803 65 145 6.1 10.4 0.00 0.00 0.00 56 1012.9
20260508143303 65 133 4.3 12.2 0.00 0.00 0.00 57 1012.9
20260508142803 65 190 2.6 12.2 0.00 0.00 0.00 58 1012.9
20260508141803 64 190 1.7 4.3 0.00 0.00 0.00 62 1012.9
20260508141303 63 192 2.6 5.2 0.00 0.00 0.00 63 1012.9
20260508140803 62 190 2.6 4.3 0.00 0.00 0.00 64 1012.7
20260508140303 62 253 1.7 4.3 0.00 0.00 0.00 65 1012.7
20260508135803 61 145 1.7 7.0 0.00 0.00 0.00 65 1012.7
20260508135306 61 132 1.7 7.8 0.00 0.00 0.00 66 1012.7
20260508134803 60 190 1.7 7.8 0.00 0.00 0.00 66 1012.6
20260508133803 60 190 0.9 5.2 0.00 0.00 0.00 69 1012.6
20260508133303 59 205 0.0 5.2 0.00 0.00 0.00 69 1012.6
20260508132803 58 190 0.0 0.0 0.00 0.00 0.00 70 1012.6
20260508132306 58 229 0.9 4.3 0.00 0.00 0.00 70 1012.6
20260508131803 58 123 0.9 1.7 0.00 0.00 0.00 71 1012.6
20260508131303 58 222 0.9 4.3 0.00 0.00 0.00 70 1012.6
20260508124803 55 303 0.0 0.0 0.00 0.00 0.00 71 1012.8
20260508123803 55 190 0.0 0.0 0.00 0.00 0.00 72 1012.8
20260508123303 55 176 0.0 0.0 0.00 0.00 0.00 72 1012.8
20260508122803 54 347 0.0 0.0 0.00 0.00 0.00 72 1012.7
20260508121803 54 347 0.0 0.0 0.00 0.00 0.00 73 1012.7
20260508121303 54 206 0.0 0.0 0.00 0.00 0.00 73 1012.7
20260508115306 52 96 0.0 0.0 0.00 0.00 0.00 73 1013.0
20260508114804 52 280 0.9 0.0 0.00 0.00 0.00 65 1012.8
20260508044304 56 145 1.7 5.2 0.00 0.00 0.00 55 1014.8
20260508043804 55 145 0.0 2.6 0.00 0.00 0.00 55 1014.8
20260508043304 55 150 0.0 0.0 0.00 0.00 0.00 55 1014.8
20260508042804 55 167 0.0 0.0 0.00 0.00 0.00 55 1014.8
20260508042306 56 167 0.0 0.0 0.00 0.00 0.00 55 1014.8
20260508041804 56 167 0.0 0.0 0.00 0.00 0.00 55 1014.8
20260508041304 56 145 0.0 0.0 0.00 0.00 0.00 55 1014.8
20260508040804 56 145 0.0 0.0 0.00 0.00 0.00 54 1014.8
20260508040303 56 145 0.0 0.0 0.00 0.00 0.00 54 1014.8
20260508034804 56 145 0.0 0.0 0.00 0.00 0.00 53 1014.9
20260508034303 56 145 0.0 0.0 0.00 0.00 0.00 53 1014.9
20260508033803 56 145 0.0 0.0 0.00 0.00 0.00 53 1014.9
20260508033303 56 145 0.0 0.0 0.00 0.00 0.00 53 1014.9
20260508032803 57 145 0.0 0.0 0.00 0.00 0.00 52 1014.8
20260508032306 57 145 0.0 1.7 0.00 0.00 0.00 52 1014.8
20260508031804 57 145 0.0 1.7 0.00 0.00 0.00 52 1014.8
20260508031303 57 145 0.0 0.0 0.00 0.00 0.00 52 1014.8
20260508030803 58 145 0.0 1.7 0.00 0.00 0.00 51 1014.7
20260508030304 58 145 0.0 1.7 0.00 0.00 0.00 50 1014.7
20260508025804 58 145 0.0 0.0 0.00 0.00 0.00 50 1014.7
20260508025306 58 145 0.0 0.0 0.00 0.00 0.00 49 1014.7
20260508024804 58 145 0.0 0.0 0.00 0.00 0.00 49 1014.8
20260508024303 58 145 0.0 0.0 0.00 0.00 0.00 49 1014.8
20260508023804 59 145 0.0 0.0 0.00 0.00 0.00 48 1014.8
20260508022804 59 145 0.0 0.0 0.00 0.00 0.00 46 1014.7
20260508022306 59 145 0.0 0.0 0.00 0.00 0.00 46 1014.7
20260508021804 60 145 0.0 0.0 0.00 0.00 0.00 45 1014.7
20260508021304 60 145 0.0 0.0 0.00 0.00 0.00 44 1014.7
20260508020304 60 145 0.0 0.0 0.00 0.00 0.00 44 1014.4
20260508015803 61 145 0.0 0.0 0.00 0.00 0.00 43 1014.4
20260508015305 61 155 0.0 0.0 0.00 0.00 0.00 42 1014.4
20260508014804 61 190 0.0 0.0 0.00 0.00 0.00 41 1014.2
20260508014303 62 190 0.0 0.0 0.00 0.00 0.00 41 1014.2
20260508013804 62 190 0.0 0.0 0.00 0.00 0.00 40 1014.2
20260508013304 62 190 0.0 0.0 0.00 0.00 0.00 39 1014.2
20260508012803 62 190 0.0 0.0 0.00 0.00 0.00 39 1014.0
20260508012307 63 190 0.0 0.0 0.00 0.00 0.00 38 1014.0
20260508011304 64 190 0.0 0.0 0.00 0.00 0.00 37 1014.0
20260508010803 64 190 0.0 0.0 0.00 0.00 0.00 37 1013.7
20260508010304 64 190 0.0 0.0 0.00 0.00 0.00 37 1013.7
20260508005803 65 190 0.0 0.0 0.00 0.00 0.00 36 1013.7
20260508005305 66 145 0.0 0.0 0.00 0.00 0.00 36 1013.7
20260508004803 67 145 0.9 2.6 0.00 0.00 0.00 35 1013.6
20260508004304 67 250 1.7 2.6 0.00 0.00 0.00 35 1013.6
20260508003305 67 285 1.7 2.6 0.00 0.00 0.00 34 1013.6
20260508002804 67 145 1.7 4.3 0.00 0.00 0.00 35 1013.8
20260508002306 66 158 1.7 7.0 0.00 0.00 0.00 34 1013.8
20260508001803 66 123 1.7 7.0 0.00 0.00 0.00 34 1013.8
20260508000804 67 167 5.2 7.8 0.00 0.00 0.00 33 1013.8
20260508000305 67 145 4.3 8.7 0.00 0.00 0.00 32 1013.8
20260507235306 67 150 3.5 5.2 0.00 0.00 0.00 33 1013.8
20260507234804 67 145 5.2 5.2 0.00 0.00 0.00 32 1013.3
20260507234304 67 162 5.2 10.4 0.00 0.00 0.00 32 1013.3